Find Starlink 32710

NORAD ID: 62604 Int'l Des: 2025-008 Owner: SPXS Country: US Constellation: starlink operational
LEOCIRCULAR

实时位置

正在加载3D地球...

关于 Starlink 32710

正在加载描述...

即将过境

Passes for default location (London). Set your location on the main map for personalized predictions.

高度历史

Loading altitude history...

两行轨道根数

1 62604U 25008T 26125.54568850 .00020849 00000-0 76438-3 0 9994
2 62604 42.9991 316.4906 0000929 246.3077 113.7677 15.27607315 74260
Epoch: May 5, 2026 • Age: 8 hours

当前状态

高度 484.2 km
速度 7.63 km/s
星下点 32.52°N, 94.62°W
发射日期 Jan 13, 2025
运行时间 1.3 years
类型 internet

技术详情

分类 Payload
质量 730.00 kg
干质量 700.00 kg
总质量 730.00 kg
长度 0.30 m
直径 4.10 m
跨度 29.00 m
形状 Box + pan
制造商 SPXS
平台类型 Starlink V2M
阶段状态 In Orbit
所有者/国家 SPXS/US

Most Searched